San Angelo, TX

1:38 AM CST on December 17, 2017 (GMT -0600)
San Angelo Regional-Mathis

Weather History for KSJT - November, 2012

Change the Weather History Date:

Sunday, November 18, 2012

  Actual Average Record
Temperature  
Mean Temperature 58 °F 54 °F  
Max Temperature 70 °F 67 °F 88 °F (1938)
Min Temperature 45 °F 41 °F 22 °F (1959)
Degree Days  
Heating Degree Days 7 11  
Month to date heating degree days 114 148  
Since 1 July heating degree days 231 239  
Cooling Degree Days 0 0  
Month to date cooling degree days 34 15  
Year to date cooling degree days 3219 2499  
Growing Degree Days 8 (Base 50)    
Moisture  
Dew Point 45 °F    
Average Humidity 67    
Maximum Humidity 83    
Minimum Humidity 51    
Precipitation  
Precipitation 0.00 in 0.04 in 0.72 in (1964)
Month to date precipitation T 0.81  
Year to date precipitation 21.78 20.07  
Snow  
Snow 0.00 in 0.00 in 0.00 in (2002)
Month to date snowfall 0.0 0.1  
Since 1 July snowfall T 0.1  
Snow Depth 0.00 in    
Sea Level Pressure  
Sea Level Pressure 30.16 in    
Wind  
Wind Speed 7 mph (SSE)    
Max Wind Speed 22 mph    
Max Gust Speed 26 mph    
Visibility 10 miles    
Events      
T = Trace of Precipitation, MM = Missing Value Source: NWS Daily Summary

Daily Weather History Graph

Daily Weather History Graph

Search for Another Location

Airport or City:

Trip Planner

Search our weather history database for the weather conditions in past years. The results will help you decide how hot, cold, wet, or windy it might be!

Date:

Astronomy

Nov. 18, 2012 Rise Set
Actual Time 7:12 AM CST 5:41 PM CST
Civil Twilight 6:46 AM CST 6:07 PM CST
Nautical Twilight 6:17 AM CST 6:37 PM CST
Astronomical Twilight 5:48 AM CST 7:06 PM CST
Moon 11:44 AM CST (11/18) 10:57 PM CST (11/18)
Length of Visible Light 11h 20m
Length of Day
10h 29m
Waxing Crescent, 30% of the Moon is Illuminated
Nov 18
Waxing Crescent
Nov 20
First Quarter
Nov 28
Full
Dec 6
Last Quarter
Dec 13
New

Hourly Weather History & Observations

Time (CST) Temp. Windchill Dew Point Humidity Pressure Visibility Wind Dir Wind Speed Gust Speed Precip Events Conditions
12:51 AM 55.9 °F - 39.0 °F 53% 30.16 in 10.0 mi SSE 5.8 mph - N/A   Clear
1:51 AM 55.9 °F - 39.0 °F 53% 30.16 in 10.0 mi South 5.8 mph - N/A   Clear
2:51 AM 55.0 °F - 37.9 °F 53% 30.16 in 10.0 mi Calm Calm - N/A   Clear
3:51 AM 51.1 °F - 37.9 °F 61% 30.15 in 10.0 mi East 3.5 mph - N/A   Clear
4:51 AM 48.0 °F - 37.9 °F 68% 30.15 in 10.0 mi East 3.5 mph - N/A   Clear
5:51 AM 48.0 °F - 37.0 °F 66% 30.16 in 10.0 mi Calm Calm - N/A   Clear
6:51 AM 45.0 °F 42.6 °F 36.0 °F 71% 30.17 in 10.0 mi East 4.6 mph - N/A   Clear
7:51 AM 48.0 °F - 37.9 °F 68% 30.18 in 10.0 mi East 5.8 mph - N/A   Clear
8:51 AM 53.1 °F - 39.9 °F 61% 30.21 in 10.0 mi Calm Calm - N/A   Clear
9:51 AM 60.1 °F - 46.0 °F 60% 30.17 in 10.0 mi SSE 15.0 mph 23.0 mph N/A   Clear
11:51 AM 64.0 °F - 48.9 °F 58% 30.18 in 10.0 mi South 13.8 mph 21.9 mph N/A   Partly Cloudy
1:51 PM 69.1 °F - 50.0 °F 51% 30.12 in 10.0 mi South 12.7 mph - N/A   Partly Cloudy
2:51 PM 69.1 °F - 51.1 °F 53% 30.11 in 10.0 mi South 13.8 mph - N/A   Clear
3:51 PM 68.0 °F - 51.1 °F 55% 30.12 in 10.0 mi South 10.4 mph - N/A   Partly Cloudy
4:51 PM 66.9 °F - 51.1 °F 57% 30.14 in 10.0 mi South 10.4 mph - N/A   Partly Cloudy
5:51 PM 66.0 °F - 51.1 °F 59% 30.16 in 10.0 mi South 10.4 mph - N/A   Scattered Clouds
6:51 PM 64.0 °F - 51.1 °F 63% 30.17 in 10.0 mi South 5.8 mph - N/A   Mostly Cloudy
7:51 PM 64.0 °F - 51.1 °F 63% 30.17 in 10.0 mi South 9.2 mph - N/A   Overcast
8:51 PM 61.0 °F - 51.1 °F 70% 30.17 in 10.0 mi Calm Calm - N/A   Partly Cloudy
9:51 PM 57.9 °F - 50.0 °F 75% 30.17 in 10.0 mi South 4.6 mph - N/A   Clear
10:51 PM 53.1 °F - 48.0 °F 83% 30.17 in 10.0 mi Calm Calm - N/A   Clear
11:51 PM 54.0 °F - 48.9 °F 83% 30.17 in 10.0 mi Calm Calm - N/A   Mostly Cloudy